When you browse on this site, cookies collect data to enhance your experience and personalize the content and advertising you see.
Visit our Privacy Policy to learn more. By continuing to use the site, you agree to this use of cookies and data.
  • In Romania
  • List of Countries
  • For 7 days
  • Water Temperature
  • Satellite Maps
  • Weather Map
  • Weather Widgets
  • user-avatar
    Login

    Hourly Weather Ladino

    Today, 21 January, Monday

    Time Temperature Precipitation Wind Pressure Humidity
    00:00 -10°C° 0 mm 3 mps 740 mmHg 91%
    01:00 -10°C° 0 mm 3 mps 740 mmHg 91%
    02:00 -10°C° 0 mm 2 mps 740 mmHg 91%
    03:00 -12°C° 0 mm 2 mps 740 mmHg 92%
    04:00 -12°C° 0 mm 2 mps 740 mmHg 93%
    05:00 -13°C° 0 mm 2 mps 740 mmHg 93%
    06:00 -14°C° 0 mm 2 mps 740 mmHg 93%
    07:00 -14°C° 0 mm 2 mps 740 mmHg 93%
    08:00 -14°C° 0 mm 2 mps 740 mmHg 93%
    09:00 -14°C° 0 mm 3 mps 741 mmHg 92%
    10:00 -14°C° 0 mm 3 mps 741 mmHg 90%
    11:00 -13°C° 0 mm 3 mps 741 mmHg 88%
    12:00 -13°C° 0 mm 3 mps 741 mmHg 87%
    13:00 -13°C° 0 mm 3 mps 741 mmHg 86%
    14:00 -13°C° 0 mm 3 mps 741 mmHg 85%
    15:00 -14°C° 0 mm 3 mps 742 mmHg 87%
    16:00 -15°C° 0 mm 3 mps 742 mmHg 90%
    17:00 -15°C° 0 mm 2 mps 743 mmHg 92%
    18:00 -16°C° 0 mm 2 mps 743 mmHg 93%
    19:00 -17°C° 0 mm 2 mps 743 mmHg 93%
    20:00 -18°C° 0 mm 2 mps 743 mmHg 94%
    21:00 -19°C° 0 mm 3 mps 744 mmHg 94%
    22:00 -21°C° 0 mm 3 mps 744 mmHg 94%
    23:00 -21°C° 0 mm 3 mps 744 mmHg 94%

    Tomorrow, 22 January, Tuesday

    Time Temperature Precipitation Wind Pressure Humidity
    00:00 -21°C° 0 mm 3 mps 744 mmHg 94%
    01:00 -21°C° 0 mm 3 mps 745 mmHg 93%
    02:00 -21°C° 0 mm 3 mps 745 mmHg 92%
    03:00 -21°C° 0 mm 3 mps 745 mmHg 93%
    04:00 -22°C° 0 mm 3 mps 745 mmHg 93%
    05:00 -22°C° 0 mm 3 mps 746 mmHg 94%
    06:00 -22°C° 0 mm 3 mps 746 mmHg 94%
    07:00 -23°C° 0 mm 3 mps 746 mmHg 95%
    08:00 -21°C° 0 mm 2 mps 747 mmHg 96%
    09:00 -20°C° 0 mm 2 mps 747 mmHg 95%
    10:00 -19°C° 0 mm 2 mps 747 mmHg 94%
    11:00 -18°C° 0 mm 2 mps 748 mmHg 93%
    12:00 -17°C° 0 mm 2 mps 748 mmHg 93%
    13:00 -17°C° 0 mm 2 mps 748 mmHg 93%
    14:00 -16°C° 0 mm 2 mps 748 mmHg 93%
    15:00 -17°C° 0 mm 2 mps 748 mmHg 94%
    16:00 -18°C° 0 mm 2 mps 748 mmHg 95%
    17:00 -20°C° 0 mm 2 mps 748 mmHg 95%
    18:00 -20°C° 0 mm 2 mps 748 mmHg 95%
    19:00 -20°C° 0 mm 2 mps 748 mmHg 95%
    20:00 -21°C° 0 mm 2 mps 748 mmHg 94%
    21:00 -21°C° 0 mm 2 mps 748 mmHg 95%
    22:00 -21°C° 0 mm 2 mps 748 mmHg 95%
    23:00 -21°C° 0 mm 2 mps 748 mmHg 95%

    Day after tomorrow, 23 January, Wednesday

    Time Temperature Precipitation Wind Pressure Humidity
    00:00 -23°C° 0 mm 2 mps 748 mmHg 95%
    01:00 -23°C° 0 mm 2 mps 748 mmHg 96%
    02:00 -23°C° 0 mm 2 mps 748 mmHg 97%
    03:00 -23°C° 0 mm 2 mps 747 mmHg 97%
    04:00 -23°C° 0 mm 2 mps 747 mmHg 98%
    05:00 -23°C° 0 mm 2 mps 747 mmHg 98%
    06:00 -21°C° 0 mm 2 mps 747 mmHg 98%
    07:00 -20°C° 0 mm 2 mps 747 mmHg 98%
    08:00 -20°C° 0 mm 2 mps 747 mmHg 98%
    09:00 -17°C° 0 mm 2 mps 747 mmHg 96%
    10:00 -15°C° 0 mm 2 mps 747 mmHg 94%
    11:00 -14°C° 0 mm 3 mps 747 mmHg 93%
    12:00 -12°C° 0 mm 3 mps 747 mmHg 91%
    13:00 -10°C° 0 mm 3 mps 747 mmHg 90%
    14:00 -9°C° 0 mm 3 mps 747 mmHg 89%
    15:00 -9°C° 0 mm 3 mps 746 mmHg 90%
    16:00 -10°C° 0 mm 3 mps 746 mmHg 92%
    17:00 -10°C° 0 mm 3 mps 746 mmHg 94%
    18:00 -12°C° 0 mm 3 mps 746 mmHg 94%
    19:00 -12°C° 0 mm 3 mps 746 mmHg 94%
    20:00 -13°C° 0 mm 3 mps 746 mmHg 94%
    21:00 -14°C° 0 mm 3 mps 746 mmHg 93%
    22:00 -16°C° 0 mm 3 mps 746 mmHg 92%
    23:00 -17°C° 0 mm 3 mps 746 mmHg 91%

    24 January, Thursday

    Time Temperature Precipitation Wind Pressure Humidity
    00:00 -17°C° 0 mm 3 mps 746 mmHg 91%
    01:00 -16°C° 0 mm 2 mps 746 mmHg 90%
    02:00 -16°C° 0 mm 2 mps 746 mmHg 90%
    03:00 -17°C° 0 mm 2 mps 746 mmHg 90%
    04:00 -17°C° 0 mm 2 mps 745 mmHg 90%
    05:00 -18°C° 0 mm 2 mps 745 mmHg 89%
    06:00 -17°C° 0 mm 2 mps 745 mmHg 88%
    07:00 -17°C° 0 mm 2 mps 745 mmHg 88%
    08:00 -17°C° 0 mm 2 mps 745 mmHg 87%
    09:00 -16°C° 0.1 mm 2 mps 746 mmHg 89%
    10:00 -14°C° 0.1 mm 2 mps 746 mmHg 91%
    11:00 -13°C° 0.1 mm 2 mps 746 mmHg 93%
    12:00 -12°C° 0 mm 2 mps 746 mmHg 93%
    13:00 -10°C° 0 mm 2 mps 746 mmHg 93%
    14:00 -10°C° 0 mm 2 mps 747 mmHg 93%
    15:00 -10°C° 0 mm 2 mps 747 mmHg 93%
    16:00 -12°C° 0 mm 2 mps 748 mmHg 92%
    17:00 -12°C° 0 mm 2 mps 748 mmHg 92%
    18:00 -14°C° 0 mm 2 mps 749 mmHg 94%
    19:00 -16°C° 0 mm 2 mps 749 mmHg 95%
    20:00 -19°C° 0 mm 2 mps 750 mmHg 96%
    21:00 -20°C° 0 mm 2 mps 750 mmHg 97%
    22:00 -19°C° 0 mm 1 mps 751 mmHg 97%
    23:00 -20°C° 0 mm 1 mps 751 mmHg 98%

    25 January, Friday

    Time Temperature Precipitation Wind Pressure Humidity
    00:00 -20°C° 0 mm 1 mps 752 mmHg 97%
    01:00 -21°C° 0 mm 1 mps 752 mmHg 97%
    02:00 -21°C° 0 mm 1 mps 753 mmHg 96%
    03:00 -22°C° 0 mm 0 mps 753 mmHg 96%
    04:00 -22°C° 0 mm 0 mps 753 mmHg 96%
    05:00 -22°C° 0 mm 0 mps 753 mmHg 95%
    06:00 -22°C° 0 mm 0 mps 753 mmHg 95%
    07:00 -22°C° 0 mm 0 mps 754 mmHg 94%
    08:00 -22°C° 0 mm 0 mps 754 mmHg 93%
    09:00 -20°C° 0 mm 0 mps 754 mmHg 92%
    10:00 -19°C° 0 mm 1 mps 754 mmHg 90%
    11:00 -17°C° 0 mm 1 mps 754 mmHg 89%
    12:00 -16°C° 0 mm 1 mps 754 mmHg 89%
    13:00 -15°C° 0 mm 1 mps 754 mmHg 90%
    14:00 -15°C° 0 mm 1 mps 754 mmHg 90%
    15:00 -16°C° 0 mm 1 mps 754 mmHg 90%
    16:00 -17°C° 0 mm 1 mps 754 mmHg 90%
    17:00 -18°C° 0 mm 1 mps 753 mmHg 90%
    18:00 -18°C° 0 mm 1 mps 753 mmHg 89%
    19:00 -18°C° 0 mm 1 mps 753 mmHg 89%
    20:00 -18°C° 0 mm 1 mps 753 mmHg 88%
    21:00 -19°C° 0 mm 1 mps 753 mmHg 88%
    22:00 -19°C° 0 mm 1 mps 753 mmHg 88%
    23:00 -19°C° 0 mm 1 mps 753 mmHg 88%

    26 January, Saturday

    Time Temperature Precipitation Wind Pressure Humidity
    00:00 -19°C° 0 mm 1 mps 752 mmHg 88%
    01:00 -19°C° 0 mm 1 mps 752 mmHg 88%
    02:00 -19°C° 0 mm 1 mps 752 mmHg 89%
    03:00 -19°C° 0 mm 1 mps 751 mmHg 89%
    04:00 -19°C° 0 mm 1 mps 751 mmHg 89%
    05:00 -19°C° 0 mm 1 mps 750 mmHg 89%
    06:00 -20°C° 0 mm 1 mps 750 mmHg 90%
    07:00 -20°C° 0 mm 1 mps 750 mmHg 90%
    08:00 -21°C° 0 mm 1 mps 750 mmHg 91%
    09:00 -21°C° 0 mm 2 mps 750 mmHg 90%
    10:00 -20°C° 0 mm 2 mps 749 mmHg 89%
    11:00 -19°C° 0 mm 2 mps 749 mmHg 87%
    12:00 -18°C° 0 mm 2 mps 749 mmHg 88%
    13:00 -18°C° 0 mm 2 mps 748 mmHg 89%
    14:00 -17°C° 0 mm 2 mps 748 mmHg 90%
    15:00 -19°C° 0 mm 2 mps 747 mmHg 92%
    16:00 -20°C° 0 mm 2 mps 747 mmHg 94%
    17:00 -21°C° 0 mm 2 mps 747 mmHg 96%
    18:00 -23°C° 0 mm 2 mps 747 mmHg 95%
    19:00 -23°C° 0 mm 2 mps 747 mmHg 95%
    20:00 -23°C° 0 mm 2 mps 746 mmHg 95%
    21:00 -24°C° 0 mm 2 mps 746 mmHg 94%
    22:00 -24°C° 0 mm 2 mps 746 mmHg 93%
    23:00 -21°C° 0 mm 1 mps 746 mmHg 93%
    Show more